AirNav   TITAN Aviation Fuels
 
 878 users online  

T25 Aero Estates Airport
Frankston, Texas, USA

GOING TO FRANKSTON?


FAA INFORMATION EFFECTIVE 22 APRIL 2021

Location

FAA Identifier: T25
Lat/Long: 32-04-54.3000N 095-27-09.0100W
32-04.905000N 095-27.150167W
32.0817500,-95.4525028
(estimated)
Elevation: 445 ft. / 136 m (estimated)
From city: 3 miles NE of FRANKSTON, TX
Time zone: UTC -5 (UTC -6 during Standard Time)
Zip code: 75763

Airport Operations

Airport use: Open to the public
Activation date: 07/2004
Control tower: no
ARTCC: FORT WORTH CENTER
FSS: FORT WORTH FLIGHT SERVICE STATION
NOTAMs facility: FTW (NOTAM-D service available)
Attendance: IREG
Wind indicator: lighted
Segmented circle: yes
Lights: ACTVT LIRL RWY 09/27; VASI RWY 09; LGTD WIND CONE - CTAF, 3 CLICKS SLOW.

Airport Communications

CTAF: 122.9
WX ASOS at TYR (17 nm N): PHONE 903-535-9105
WX AWOS-3 at JSO (17 nm SE): 119.075 (903-586-0124)
WX AWOS-3PT at F44 (20 nm W): 119.6 (903-670-1247)

Nearby radio navigation aids

VOR radial/distance  VOR name  Freq  Var
FZTr078/4.0FRANKSTON VOR/DME111.4006E
TYRr183/16.6TYLER VOR/DME114.2006E
CQYr093/39.4CEDAR CREEK VORTAC114.8006E

 
NDB name  Hdg/Dist  Freq  Var  ID
PALESTINE031/22.037504EPSN .--. ... -.
CROSSROADS080/25.721508ECSZ -.-. ... --..
AMBASSADOR203/34.840407EABG .- -... --.

Airport Services

Runway Information

Runway 9/27

Dimensions: 3100 x 60 ft. / 945 x 18 m
Surface: turf, in good condition
Runway edge lights: low intensity
Runway edge markings: RWY MARKED WITH 18 FT NUMERALS ON 40 FT BY 50 FT ASPH PAD.
RUNWAY 9  RUNWAY 27
Traffic pattern: right
ALL ACFT RMN SOUTH OF THE RWY.
left
Markings: NSTD, in good conditionNSTD, in good condition
Visual slope indicator: 2-box VASI on left
Obstructions: 25 ft. pole, 90 ft. left of centerline31 ft. trees, 60 ft. right of centerline

Helipad H1

Dimensions: 50 x 50 ft. / 15 x 15 m
Surface: turf, in good condition
Traffic pattern: leftleft

Airport Ownership and Management from official FAA records

Ownership: Privately-owned
Owner: POAAE INC
11668 TAILSPIN TRAIL
FRANKSTON, TX 75763
Phone (817) 798-7757
DENISE WALKER, SECRETARY POAAE (HOMEOWNERS ASSOC).
Manager: GARNET MCCLURE
11685 PILOT LANE
FRANKSTON, TX 75763
Phone (903) 617-7860

Airport Operational Statistics

Aircraft based on the field: 43
Single engine airplanes: 40
Multi engine airplanes: 1
Helicopters: 2
    
Aircraft operations: avg 70/day *
95% local general aviation
5% transient general aviation
* for 12-month period ending 30 March 2019

Additional Remarks

A57-H1 APCH RATIO TO NORTH 3:1; EAST 2:1, SOUTH 7:1 & WEST 8:1.
ALL ACFT MONITOR CTAF DUE TO PROXIMITY TO PARADISE POINT PVT. ARPT NORTH OF ARPT.
DEER ON & INVOF RY.
STUDENT PILOT TRAINING IS NOT AUTHORIZED EXCEPT BY RESIDENTS OF AERO ESTATES.
FOR CD CTC FORT WORTH ARTCC AT 817-858-7584.
A52-H1 14 FT BLDG 200 FT NORTH & 20 FT BLDG 200 FT WEST OF LNDG PAD. 43 FT TREES 152 FT N; 30 FT POLE 70 FT E; 38 FT TREES 280 FT S; 25 FT POLE 205 FT W.

Instrument Procedures

There are no published instrument procedures at T25.

Some nearby airports with instrument procedures:

KTYR - Tyler Pounds Regional Airport (17 nm N)
KJSO - Cherokee County Airport (17 nm SE)
F44 - Athens Municipal Airport (20 nm W)
KPSN - Palestine Municipal Airport (22 nm SW)
KRFI - Rusk County Airport (31 nm E)
 
Loc | Ops | Rwys | IFR | FBO | Links
Com | Nav | Svcs | Stats | Notes
Area around T25 (Aero Estates Airport)
 
Road maps at: MapQuest Bing Google
 
Aerial photo
WARNING: Photo may not be current or correct
Aerial photo of T25 (Aero Estates Airport)
Photo taken 10-Jun-2017
looking northeast.

Do you have a better or more recent aerial photo of Aero Estates Airport that you would like to share? If so, please send us your photo.

 
Sectional chart

 
Airport distance calculator
Flying to Aero Estates Airport? Find the distance to fly.

From to T25

Sunrise and sunset
Times for 14-May-2021
 Local
(UTC-5)
 Zulu
(UTC)
Morning civil twilight05:5910:59
Sunrise06:2611:26
Sunset20:1001:10
Evening civil twilight20:3701:37

Current date and time
Zulu (UTC)  15-May-2021 03:14:51
Local (UTC-5)  14-May-2021 22:14:51
 
METAR
KTYR 
17nm N 
150253Z AUTO 12006KT 10SM CLR 19/11 A3013 RMK AO2 SLP197 T01940111 55003
KJSO 
17nm SE 
150255Z AUTO 00000KT 10SM CLR 19/11 A3016 RMK AO2 T01950108
KF44 
20nm W 
150255Z AUTO 12003KT 10SM CLR 18/12 A3010 RMK AO2
KPSN 
22nm SW 
150255Z AUTO 12005KT 10SM FEW055 19/13 A3012 RMK AO2
KRFI 
31nm E 
150255Z AUTO 09004KT 10SM CLR 18/10 A3015 RMK AO2 T01810101
TAF
KTYR 
17nm N 
141733Z 1418/1518 11009KT P6SM BKN060 FM150100 13007KT P6SM FEW250 FM150600 14007KT P6SM SCT050 FM151500 17010KT P6SM SCT050 BKN250
NOTAMs
Click for the latest NOTAMs
NOTAMs are issued by the DoD/FAA and will open in a separate window not controlled by AirNav.

 

 
 

Would you like to see your business listed on this page?

 If your business provides an interesting product or service to pilots, flight crews, aircraft, or users of the Aero Estates Airport, you should consider listing it here.  To start the listing process, click on the button below
 
Add a business
 

Other Pages about Aero Estates Airport

Update a link
 
Copyright © AirNav, LLC. All rights reserved. Privacy Policy  Contact